Wind_Speed
11 11 11 11 8 11 20 26 13 2 5 8 9 10 8 8 5 10 12 14 8 7 13 17 16 14 13 14 13 13 13 14 14 13 11 11 10 12 13 13 14 12 11 10 9 9 8 7 7
13 12 12 5 14 20 25 22 11 7 8 13 5 16 14 4 9 6 10 6 9 11 14 19 18 16 14 13 14 12 12 12 12 12 10 9 8 10 12 12 12 12 12 11 10 9 8 8 8
14 15 7 9 21 30 28 5 6 9 12 12 7 11 9 4 8 11 9 8 10 18 13 20 20 18 16 14 14 12 10 10 10 9 9 8 7 7 9 10 12 12 12 11 10 10 9 8 8
14 15 14 18 25 25 24 7 6 5 5 8 9 13 13 15 14 17 9 11 14 12 16 19 22 20 17 15 14 13 12 10 9 8 7 6 6 6 6 7 9 10 11 9 10 10 10 9 9
16 11 17 18 20 26 22 8 6 7 9 11 12 12 11 19 16 15 12 14 14 15 17 20 26 23 20 18 16 15 13 10 9 7 6 5 4 4 5 5 6 8 8 8 9 9 10 10 10
14 14 19 26 22 22 19 8 11 9 10 13 14 9 12 17 14 14 14 14 15 16 19 23 28 25 22 19 17 15 14 11 9 8 6 5 4 4 3 3 4 5 5 6 7 7 7 8 9
22 20 23 23 26 22 19 14 13 11 13 14 16 14 14 16 14 15 17 18 18 17 14 22 28 26 23 20 18 16 14 12 10 8 7 7 6 5 4 2 2 2 3 4 4 4 4 4 5
20 21 27 29 27 23 12 15 18 14 12 13 15 15 18 18 16 14 16 16 15 12 13 19 26 25 23 22 21 17 15 13 11 10 9 9 8 7 5 4 4 3 2 2 1 2 1 1 1
21 27 32 26 22 21 14 16 17 15 13 15 16 8 8 21 20 17 15 16 14 11 12 18 24 25 24 24 21 19 17 15 14 13 12 11 10 9 7 7 6 5 4 3 3 3 3 2 2
28 33 34 24 21 18 20 16 18 18 16 13 18 22 11 17 19 18 15 14 14 13 11 13 18 24 25 26 23 22 18 17 14 14 13 13 12 11 10 9 7 7 6 4 4 5 5 5 6
30 40 27 25 21 15 12 14 19 19 18 18 17 24 20 25 19 20 16 14 14 16 18 18 18 19 26 28 25 23 20 17 15 15 15 15 13 13 12 11 9 9 8 7 6 7 8 7 8
31 35 32 29 20 15 18 16 19 22 17 16 19 27 23 25 24 23 19 18 18 18 18 21 24 23 24 27 27 24 22 19 18 17 16 16 16 15 14 12 12 11 10 9 9 8 8 6 7
37 33 29 25 24 20 19 22 22 22 19 22 10 13 20 21 24 23 22 21 19 20 19 19 21 25 23 25 26 26 23 22 20 19 17 18 18 16 16 14 13 12 10 11 9 9 7 6 7
34 32 35 32 30 27 24 23 25 26 22 23 20 20 24 19 21 22 22 22 21 20 18 19 17 23 23 23 22 26 25 24 24 22 20 20 20 19 17 16 14 12 12 11 10 10 10 10 11
35 35 34 40 33 31 25 30 30 27 23 22 27 27 23 25 24 25 25 25 26 21 18 20 18 21 24 24 26 25 26 26 26 24 23 22 22 21 18 17 15 14 12 12 10 11 12 12 12
32 38 44 44 37 35 30 38 31 27 25 27 25 30 30 28 26 27 29 27 29 28 21 21 20 20 20 25 28 26 28 29 24 25 23 21 23 23 20 19 16 15 14 12 12 11 12 11 9
42 46 50 46 38 35 36 38 29 26 28 31 30 28 31 32 29 30 30 30 29 31 27 24 23 25 24 24 26 28 29 31 26 28 25 24 25 24 20 20 18 17 16 14 14 13 12 11 11
53 53 46 44 43 38 43 42 33 33 33 34 31 32 31 35 34 34 33 31 29 31 32 29 27 27 27 28 28 30 31 32 30 30 27 28 27 25 23 21 21 18 18 17 16 15 15 13 14
46 46 48 47 38 42 46 45 40 36 36 37 37 33 34 35 35 33 34 33 33 33 37 36 32 31 31 30 31 31 30 33 34 30 30 27 28 26 24 22 22 21 20 19 17 18 17 16 17
52 50 50 48 39 41 43 47 44 42 37 41 35 34 40 35 34 36 35 35 37 36 39 40 35 34 34 33 31 32 32 32 33 34 30 29 26 25 22 21 20 19 18 18 17 18 17 18 16
58 56 54 46 40 44 40 47 42 41 45 43 40 39 37 36 37 36 39 41 40 43 43 45 37 35 36 35 37 36 36 35 37 38 34 30 25 25 24 22 21 17 15 15 15 17 19 19 22
54 58 50 47 43 41 45 28 40 47 44 42 45 44 42 38 36 39 40 39 42 46 48 49 43 37 38 39 41 40 39 37 34 37 35 29 26 27 27 24 23 20 18 19 18 19 21 23 24
59 46 52 49 43 41 44 33 46 44 44 49 47 46 43 45 41 44 40 43 47 44 45 48 48 43 40 44 43 42 43 40 39 39 39 33 28 26 26 26 25 22 21 22 21 23 24 27 27
51 43 42 41 44 30 40 43 48 50 47 46 48 47 49 49 50 48 44 44 46 46 47 48 48 48 43 42 41 44 45 45 44 42 41 36 32 29 26 27 26 25 23 24 25 24 25 26 24
37 46 24 22 24 10 51 46 51 40 49 44 46 42 46 51 51 51 52 50 53 51 48 50 47 48 48 48 42 39 44 47 48 44 43 40 35 33 28 25 26 28 28 26 24 22 23 25 26
49 45 23 20 12 23 41 23 67 82 36 17 28 47 53 44 44 45 47 48 48 50 52 53 54 52 49 51 47 39 38 46 48 48 45 42 38 36 33 28 29 31 32 28 24 24 25 27 23
51 44 59 21 29 18 27 35 55 59 59 63 34 19 18 46 47 41 46 47 43 46 48 50 51 52 52 50 51 45 40 41 49 50 48 43 40 37 35 32 32 34 33 28 27 31 29 26 24
48 39 30 42 9 16 26 37 45 47 60 46 44 44 34 38 38 42 42 42 40 50 51 51 51 50 48 51 52 49 44 43 46 51 49 44 42 38 35 35 35 33 34 30 30 32 30 27 26
31 33 33 24 19 11 13 32 73 43 37 36 49 42 32 39 37 38 41 44 38 39 46 45 48 49 48 49 54 53 47 47 50 49 47 44 43 38 37 38 36 31 33 31 32 33 32 29 27
27 41 34 18 14 17 32 13 30 28 40 35 32 35 41 41 36 34 36 40 44 38 37 46 42 50 48 53 57 52 46 53 49 48 43 44 46 42 40 39 35 31 33 33 33 33 32 29 28
Wind_Direction
213 199 186 175 232 239 250 253 244 111 242 227 214 199 213 286 249 134 169 161 240 204 213 202 188 178 167 152 147 146 140 129 125 119 114 110 106 97 90 88 85 85 84 80 76 75 79 79 77
206 191 193 185 236 243 250 241 191 214 182 207 220 188 190 54 228 146 155 172 203 193 212 211 197 186 180 167 158 158 150 138 133 127 121 112 104 96 93 89 86 85 80 76 76 76 75 74 73
210 199 207 239 236 245 257 166 191 180 225 242 206 192 179 178 241 197 165 195 177 201 208 211 206 193 187 178 170 165 158 151 144 136 128 117 104 95 95 95 90 85 85 82 80 79 74 70 72
207 203 225 239 243 248 257 227 176 194 213 178 177 171 207 212 203 214 195 206 186 185 215 216 207 197 191 185 180 173 171 168 157 148 138 127 111 97 92 93 95 91 88 92 86 81 77 73 70
200 197 233 241 245 251 258 189 189 211 207 189 181 178 212 215 210 194 196 211 198 209 214 218 206 199 192 189 187 183 176 178 178 167 166 155 135 111 96 93 96 96 91 88 86 85 82 76 73
220 217 235 242 248 249 251 232 237 228 210 199 192 189 199 207 204 199 203 217 219 223 209 209 203 199 193 191 194 189 184 184 194 184 186 187 183 167 141 125 113 107 110 96 85 81 82 80 77
214 225 238 247 255 244 226 217 226 222 215 208 199 204 218 228 209 207 213 219 222 220 217 210 200 198 193 194 199 196 194 193 203 204 201 206 208 204 190 180 171 145 127 105 98 93 87 90 88
223 233 248 248 258 269 215 221 228 219 219 211 206 207 230 229 224 210 209 210 214 198 194 202 202 202 201 202 201 202 203 202 209 216 217 214 217 219 212 217 225 222 198 168 153 120 115 90 44
226 240 245 241 249 255 260 212 222 218 225 198 200 229 216 222 226 214 207 201 197 188 180 195 204 208 210 213 209 210 209 210 215 221 224 223 222 221 220 223 233 247 245 230 238 248 249 250 265
221 232 239 234 232 291 229 220 218 216 225 216 215 222 196 222 218 215 208 201 202 207 212 208 212 216 218 221 216 217 216 219 223 226 229 227 224 227 230 228 236 247 257 254 263 269 269 277 283
222 233 235 247 256 269 222 218 220 225 227 225 214 230 222 222 220 215 207 205 210 218 226 231 224 223 225 225 223 219 220 221 227 229 230 233 229 235 236 235 239 248 257 267 270 273 280 289 283
230 234 239 241 235 261 227 234 227 226 228 214 243 233 230 237 225 217 209 215 219 226 237 237 229 224 226 227 223 224 222 222 227 231 228 236 241 235 242 238 242 249 260 266 272 278 291 279 297
230 234 241 243 251 247 240 233 233 234 233 219 236 198 212 227 220 218 217 221 225 231 232 237 226 213 220 229 224 224 223 224 227 228 224 235 242 243 242 245 246 250 256 272 276 273 276 304 293
231 238 242 243 241 240 236 236 230 229 225 230 222 235 215 221 215 223 211 225 231 236 230 229 226 209 211 224 227 228 225 225 227 227 224 229 236 242 241 248 250 250 260 260 283 305 303 295 288
234 241 244 241 237 237 239 238 233 237 228 235 228 226 235 232 225 224 225 210 235 238 231 226 226 219 215 222 230 221 228 230 229 229 226 224 233 239 239 245 251 257 260 273 286 290 295 293 294
237 239 243 236 234 239 231 239 234 236 234 229 233 231 228 232 215 225 232 220 224 241 230 223 224 224 216 217 224 224 227 231 229 227 232 226 235 240 240 242 247 252 258 264 271 277 279 285 283
232 237 233 240 229 231 228 238 234 232 245 234 227 233 227 229 220 221 224 237 211 237 232 226 227 230 225 223 227 228 226 232 231 228 232 235 237 242 243 248 249 248 254 257 262 268 268 268 268
220 226 233 236 231 231 235 239 239 235 235 238 231 227 231 223 227 219 219 224 226 225 243 232 230 233 230 227 228 231 229 233 230 228 231 237 241 243 248 247 255 252 256 259 266 268 268 269 271
223 227 230 235 233 231 237 240 238 239 233 235 235 232 228 230 225 223 224 219 226 222 233 239 232 234 233 230 231 234 236 234 235 233 232 239 242 244 247 250 255 257 257 263 268 268 267 269 273
226 231 233 235 232 234 239 239 241 236 233 236 232 233 233 227 228 223 225 221 221 226 233 242 237 235 234 234 237 238 238 239 236 238 236 244 240 242 244 246 252 256 253 256 263 265 265 259 261
225 226 231 235 231 233 236 246 241 234 237 237 238 237 230 228 226 223 225 225 224 225 230 241 251 236 238 239 238 237 238 236 235 236 238 244 241 241 244 245 249 250 246 254 266 272 268 264 266
222 225 230 233 237 243 232 233 234 237 234 234 235 238 232 223 224 228 222 223 230 235 235 246 253 246 239 240 241 239 245 245 246 240 240 244 242 243 244 246 249 250 254 258 261 272 266 257 260
227 223 225 232 238 242 243 238 234 232 229 234 236 232 232 228 229 226 221 225 227 233 236 243 250 250 242 243 243 244 243 244 243 240 239 239 237 243 240 243 248 253 259 263 263 270 270 261 270
232 238 240 237 233 240 239 243 244 229 235 239 238 234 230 233 233 229 229 231 233 237 241 242 246 247 247 245 243 243 242 243 242 239 237 239 236 242 242 246 251 258 262 265 266 269 286 275 278
219 231 238 242 238 239 225 230 237 232 232 238 242 238 238 239 239 239 237 235 232 232 238 244 243 247 246 247 241 243 240 241 244 242 240 238 238 242 247 254 254 256 259 262 267 274 288 278 278
227 220 211 209 200 217 222 219 234 234 224 226 258 245 234 241 235 237 240 243 243 241 241 240 243 243 247 246 243 238 241 238 242 242 241 239 241 243 248 254 252 253 258 259 270 285 285 280 272
225 227 217 238 236 229 219 224 245 240 237 234 234 193 215 236 238 238 241 237 236 237 235 237 240 242 244 247 247 240 241 238 239 243 241 239 240 242 245 249 250 251 253 254 277 279 280 270 266
223 230 210 217 196 223 222 208 230 231 231 231 243 241 251 224 230 232 229 228 233 238 239 240 237 239 239 241 246 242 240 242 242 241 241 240 240 241 242 245 248 251 249 252 261 271 276 268 263
227 231 225 221 215 203 211 221 230 238 244 245 236 226 242 225 228 235 239 241 228 230 235 235 234 234 236 235 244 243 237 241 244 244 240 238 237 238 243 250 250 248 247 253 257 266 267 263 262
238 233 224 211 177 217 226 240 217 236 242 235 244 230 231 237 240 232 229 229 230 228 233 236 233 234 237 240 241 237 232 238 245 241 234 234 235 239 246 249 242 244 244 250 257 266 262 259 263
Height
3140 3142 3143 3144 3152 3145 3139 3134 3133 3132 3136 3138 3138 3142 3145 3144 3143 3145 3145 3147 3153 3156 3159 3161 3164 3166 3167 3168 3170 3171 3172 3172 3173 3174 3176 3177 3178 3178 3178 3178 3178 3179 3180 3180 3181 3181 3182 3182 3183
3139 3141 3143 3145 3146 3141 3131 3127 3130 3133 3132 3135 3138 3140 3142 3141 3142 3143 3145 3146 3151 3155 3157 3160 3163 3165 3167 3168 3169 3172 3173 3173 3175 3175 3177 3178 3179 3179 3180 3180 3180 3181 3181 3181 3182 3183 3183 3184 3184
3138 3139 3144 3143 3140 3135 3127 3126 3128 3130 3131 3134 3138 3139 3143 3141 3142 3143 3145 3146 3150 3153 3156 3158 3161 3164 3166 3168 3170 3171 3173 3174 3175 3177 3177 3179 3180 3181 3181 3182 3182 3182 3183 3184 3184 3185 3185 3185 3186
3137 3139 3141 3136 3134 3129 3128 3129 3128 3130 3132 3135 3137 3139 3138 3139 3140 3142 3145 3145 3149 3152 3155 3157 3160 3163 3165 3167 3169 3171 3173 3175 3176 3177 3179 3180 3181 3182 3183 3183 3184 3184 3184 3186 3185 3186 3187 3187 3188
3134 3138 3137 3134 3131 3127 3127 3125 3127 3132 3132 3134 3137 3137 3137 3138 3140 3142 3144 3144 3147 3149 3152 3154 3157 3160 3163 3166 3168 3170 3172 3174 3176 3177 3179 3181 3182 3183 3184 3184 3185 3185 3186 3187 3187 3188 3188 3188 3189
3132 3134 3133 3130 3128 3126 3125 3125 3126 3131 3132 3133 3135 3137 3135 3137 3139 3141 3143 3144 3145 3147 3148 3150 3154 3158 3161 3164 3167 3169 3171 3173 3176 3177 3179 3181 3182 3183 3184 3185 3186 3186 3187 3187 3188 3188 3189 3190 3190
3127 3131 3129 3127 3123 3122 3122 3124 3126 3130 3131 3132 3134 3136 3133 3136 3138 3139 3141 3142 3142 3144 3147 3148 3152 3156 3159 3162 3165 3168 3170 3171 3174 3176 3178 3180 3181 3182 3183 3184 3186 3187 3187 3187 3188 3189 3190 3190 3190
3125 3128 3125 3123 3121 3118 3118 3122 3125 3128 3129 3131 3131 3133 3131 3133 3136 3137 3139 3140 3140 3143 3144 3147 3151 3155 3158 3160 3163 3166 3168 3170 3172 3175 3177 3178 3180 3182 3183 3184 3185 3186 3186 3187 3188 3188 3189 3190 3191
3123 3123 3118 3119 3120 3118 3118 3118 3122 3126 3127 3128 3130 3131 3128 3128 3133 3135 3136 3137 3138 3141 3143 3146 3149 3153 3156 3158 3161 3163 3165 3168 3171 3173 3175 3176 3178 3180 3181 3183 3184 3185 3186 3186 3187 3187 3188 3189 3190
3115 3114 3111 3115 3115 3115 3117 3117 3120 3123 3124 3126 3128 3126 3128 3127 3131 3132 3133 3135 3136 3139 3142 3144 3147 3150 3153 3155 3158 3160 3163 3166 3169 3171 3173 3175 3176 3178 3180 3181 3182 3184 3185 3186 3186 3187 3188 3189 3189
3108 3103 3109 3110 3112 3113 3111 3114 3117 3119 3120 3123 3125 3123 3126 3124 3128 3129 3131 3132 3134 3136 3138 3141 3143 3146 3149 3152 3155 3158 3161 3164 3167 3169 3171 3173 3174 3175 3177 3179 3181 3182 3183 3184 3185 3186 3187 3188 3188
3102 3102 3104 3103 3106 3109 3109 3113 3114 3115 3117 3120 3122 3118 3119 3120 3123 3126 3128 3129 3131 3133 3135 3137 3139 3142 3145 3148 3152 3155 3158 3161 3163 3166 3169 3170 3172 3173 3175 3177 3179 3181 3182 3183 3184 3184 3186 3187 3186
3093 3096 3100 3102 3103 3106 3107 3108 3110 3111 3114 3114 3117 3118 3116 3116 3119 3123 3125 3126 3128 3129 3131 3132 3135 3138 3142 3144 3149 3152 3155 3158 3161 3163 3166 3167 3169 3171 3173 3174 3177 3178 3180 3181 3182 3183 3184 3183 3184
3090 3093 3094 3096 3097 3100 3102 3103 3104 3105 3109 3111 3112 3114 3115 3116 3117 3120 3122 3123 3123 3126 3128 3130 3132 3135 3138 3141 3145 3149 3152 3155 3157 3160 3163 3165 3166 3168 3171 3171 3174 3175 3176 3179 3179 3179 3180 3180 3180
3083 3087 3087 3086 3090 3093 3096 3096 3096 3100 3104 3106 3107 3110 3111 3113 3115 3116 3118 3122 3120 3122 3125 3128 3130 3132 3136 3138 3140 3146 3148 3152 3154 3157 3159 3161 3163 3165 3168 3169 3171 3172 3174 3175 3176 3177 3177 3178 3178
3078 3080 3074 3073 3082 3085 3090 3083 3091 3095 3097 3099 3101 3103 3106 3108 3111 3114 3114 3117 3119 3118 3122 3125 3127 3129 3132 3135 3137 3141 3144 3147 3151 3153 3155 3159 3160 3162 3165 3166 3168 3170 3172 3173 3174 3175 3176 3176 3177
3066 3060 3060 3068 3074 3079 3079 3077 3085 3089 3090 3091 3094 3096 3099 3102 3105 3109 3111 3112 3116 3114 3116 3121 3124 3126 3129 3132 3135 3137 3141 3143 3147 3149 3152 3154 3157 3159 3162 3163 3165 3167 3168 3170 3171 3172 3173 3174 3174
3039 3047 3054 3056 3066 3071 3071 3069 3078 3081 3083 3085 3086 3090 3093 3096 3097 3102 3105 3108 3110 3111 3110 3116 3120 3122 3125 3128 3130 3133 3136 3139 3143 3145 3149 3151 3154 3156 3158 3161 3162 3164 3165 3166 3167 3169 3171 3171 3171
3044 3044 3047 3051 3058 3063 3060 3063 3067 3071 3075 3077 3080 3081 3084 3088 3091 3096 3099 3103 3104 3106 3106 3108 3113 3117 3119 3122 3124 3127 3131 3135 3137 3141 3145 3149 3151 3152 3154 3157 3158 3160 3162 3163 3164 3165 3167 3167 3167
3034 3037 3037 3042 3051 3054 3053 3052 3060 3063 3064 3068 3070 3074 3076 3081 3085 3089 3092 3095 3098 3098 3097 3100 3106 3110 3114 3117 3120 3122 3125 3129 3133 3136 3140 3142 3146 3148 3151 3153 3154 3155 3157 3159 3160 3161 3162 3163 3162
3018 3023 3026 3032 3042 3046 3048 3044 3048 3051 3055 3058 3062 3065 3068 3072 3076 3081 3085 3086 3090 3092 3090 3091 3096 3103 3108 3112 3114 3116 3118 3122 3126 3129 3133 3136 3141 3144 3146 3149 3150 3152 3154 3155 3156 3157 3158 3159 3160
3009 3014 3023 3030 3035 3031 3036 3031 3039 3040 3043 3049 3050 3055 3058 3064 3069 3073 3077 3080 3081 3083 3085 3083 3088 3094 3100 3103 3106 3109 3112 3115 3120 3124 3128 3131 3135 3138 3141 3144 3146 3147 3149 3150 3151 3152 3154 3154 3156
2996 3012 3017 3021 3023 3026 3024 3027 3022 3032 3030 3033 3039 3044 3050 3054 3058 3063 3067 3072 3075 3075 3079 3080 3080 3082 3090 3094 3099 3102 3105 3110 3113 3116 3121 3125 3129 3132 3135 3138 3140 3142 3144 3145 3146 3147 3148 3149 3149
3001 3010 3012 3013 3015 3011 3016 3020 3003 3014 3017 3026 3030 3034 3038 3043 3047 3053 3059 3063 3066 3066 3070 3074 3075 3074 3078 3084 3089 3093 3098 3101 3103 3108 3113 3118 3123 3126 3129 3132 3135 3136 3139 3140 3140 3141 3141 3142 3141
2987 3002 3003 3004 2999 3002 3005 3007 2993 3001 3012 3017 3020 3023 3027 3031 3036 3039 3043 3049 3054 3058 3058 3062 3066 3067 3070 3071 3081 3083 3088 3092 3094 3100 3106 3111 3116 3119 3123 3126 3128 3130 3132 3133 3134 3135 3134 3135 3134
2976 2982 2986 2986 2984 2982 2991 3000 2975 2971 3007 3007 3004 3004 3016 3024 3026 3029 3033 3036 3041 3045 3046 3052 3055 3057 3061 3062 3069 3076 3080 3083 3085 3089 3096 3103 3108 3113 3116 3119 3122 3124 3125 3127 3128 3127 3128 3129 3128
2966 2967 2969 2981 2979 2980 2980 2989 2978 2987 2990 2994 2997 2999 3003 3012 3018 3021 3026 3029 3032 3034 3037 3037 3044 3048 3051 3054 3058 3067 3071 3074 3076 3078 3086 3095 3100 3104 3109 3112 3114 3117 3119 3120 3120 3122 3123 3122 3123
2957 2966 2968 2972 2969 2971 2968 2973 2961 2968 2970 2983 2989 2992 2996 3001 3005 3009 3013 3017 3020 3024 3027 3027 3032 3036 3043 3045 3048 3055 3062 3066 3067 3068 3078 3087 3092 3096 3101 3104 3106 3109 3111 3114 3115 3116 3117 3117 3118
2951 2949 2953 2956 2960 2958 2955 2956 2938 2969 2968 2973 2976 2980 2986 2990 2994 2998 3001 3005 3010 3013 3015 3016 3022 3026 3031 3036 3039 3044 3051 3055 3056 3061 3070 3077 3083 3088 3092 3095 3099 3102 3104 3106 3109 3110 3110 3111 3112
2941 2941 2943 2941 2943 2949 2946 2946 2956 2958 2959 2961 2964 2967 2977 2982 2985 2988 2993 2997 2999 3003 3008 3004 3011 3016 3021 3027 3029 3033 3040 3041 3049 3053 3062 3068 3074 3079 3083 3087 3091 3094 3097 3100 3102 3103 3104 3104 3104